TimeEDT,TemperatureF,Dew PointF,Humidity,Sea Level PressureIn,VisibilityMPH,Wind Direction,Wind SpeedMPH,Gust SpeedMPH,PrecipitationIn,Events,Conditions,WindDirDegrees,DateUTC
12:52 AM,39.9,37.0,89,30.25,10.0,SSE,4.6,-,N/A,,Overcast,150,2012-03-15 04:52:00
1:52 AM,39.9,37.0,89,30.27,10.0,Calm,Calm,-,N/A,,Overcast,0,2012-03-15 05:52:00
3:52 AM,39.0,37.0,93,30.28,10.0,South,4.6,-,N/A,,Overcast,180,2012-03-15 07:52:00
4:52 AM,39.9,37.0,89,30.30,10.0,Calm,Calm,-,N/A,,Overcast,0,2012-03-15 08:52:00
6:48 AM,39.2,35.6,87,30.31,10.0,SSE,3.5,-,N/A,,Overcast,160,2012-03-15 10:48:00
6:52 AM,39.9,37.0,89,30.32,10.0,SSE,3.5,-,N/A,,Overcast,150,2012-03-15 10:52:00
7:19 AM,39.2,37.4,93,30.32,10.0,Calm,Calm,-,N/A,,Overcast,0,2012-03-15 11:19:00
7:52 AM,39.0,36.0,89,30.34,10.0,South,3.5,-,N/A,,Overcast,180,2012-03-15 11:52:00
8:03 AM,39.2,35.6,87,30.32,10.0,ESE,3.5,-,N/A,,Overcast,120,2012-03-15 12:03:00
8:52 AM,41.0,36.0,82,30.35,10.0,Calm,Calm,-,N/A,,Overcast,0,2012-03-15 12:52:00
9:31 AM,41.0,37.4,87,30.33,10.0,Calm,Calm,-,N/A,,Overcast,0,2012-03-15 13:31:00
9:52 AM,42.1,36.0,79,30.36,10.0,North,4.6,-,N/A,,Overcast,360,2012-03-15 13:52:00
10:52 AM,43.0,36.0,76,30.34,10.0,Calm,Calm,-,N/A,,Overcast,0,2012-03-15 14:52:00
11:52 AM,43.0,36.0,76,30.34,10.0,SE,3.5,-,N/A,,Overcast,130,2012-03-15 15:52:00
12:52 PM,45.0,37.0,74,30.32,10.0,ENE,5.8,-,N/A,,Overcast,70,2012-03-15 16:52:00
1:52 PM,46.0,37.0,71,30.31,10.0,East,6.9,-,N/A,,Overcast,100,2012-03-15 17:52:00
2:52 PM,46.9,37.0,68,30.29,10.0,ESE,8.1,-,N/A,,Mostly Cloudy,110,2012-03-15 18:52:00
3:52 PM,46.9,39.0,74,30.29,10.0,SE,5.8,-,0.00,Rain,Light Rain,130,2012-03-15 19:52:00
4:52 PM,46.9,37.9,71,30.27,10.0,ESE,4.6,-,0.00,Rain,Light Rain,120,2012-03-15 20:52:00
5:52 PM,45.0,39.9,82,30.29,10.0,NE,3.5,-,N/A,,Overcast,40,2012-03-15 21:52:00
6:52 PM,44.1,39.0,82,30.31,10.0,ENE,4.6,-,0.00,Rain,Light Rain,70,2012-03-15 22:52:00
7:52 PM,42.1,37.9,85,30.31,10.0,ENE,4.6,-,0.00,,Mostly Cloudy,60,2012-03-15 23:52:00
8:52 PM,41.0,37.0,86,30.32,10.0,Calm,Calm,-,N/A,,Scattered Clouds,0,2012-03-16 00:52:00
9:52 PM,39.9,36.0,86,30.33,10.0,ESE,4.6,-,N/A,,Mostly Cloudy,110,2012-03-16 01:52:00
10:23 PM,39.2,33.8,81,30.31,10.0,SE,4.6,-,N/A,,Overcast,130,2012-03-16 02:23:00
10:52 PM,39.0,33.1,79,30.33,10.0,ESE,3.5,-,N/A,,Overcast,120,2012-03-16 02:52:00
11:52 PM,39.0,33.1,79,30.32,10.0,SSE,3.5,-,N/A,,Overcast,150,2012-03-16 03:52:00